YSWG

Details ICAO YSWG (WGA)
Name Wagga Wagga
Region Australia
Timezone Australia/Sydney (UTC+10.0)
Plans Departing 25
Arriving 28
Stats Elevation 724 ft / 221 m (AMSL)
Location -35.163952° 147.466157°
Runways 2
Magnetic Variation 11.692° E
Sunrise 2018-05-26 21:07:38 UTC / 2018-05-27 07:07:38 Local
Sunset 2018-05-27 07:09:44 UTC / 2018-05-27 17:09:44 Local
Advertisement - Login to hide

Runways

ID Width Length Bearing (true) Bearing (mag) Surface Threshold Offset Overrun Length
05 148 ft / 45 m 5,790 ft / 1,765 m 62.00° 50.31° Asphalt 0 ft / 0 m 0 ft / 0 m
12 98 ft / 30 m 5,002 ft / 1,525 m 125.35° 113.66° Grass 0 ft / 0 m 0 ft / 0 m
23 148 ft / 45 m 5,790 ft / 1,765 m 241.99° 230.30° Asphalt 0 ft / 0 m 0 ft / 0 m
30 98 ft / 30 m 5,002 ft / 1,525 m 305.34° 293.65° Grass 0 ft / 0 m 0 ft / 0 m

Map

Weather


0- 5 10 15 20 25 30 35+ Temperature / ° C

Clouds and Precipitation
Forecast for 2018-05-27 06:00 UTC. Updated 3 hours ago

Ground ~20,000 ft ~40,000 ft Winds

METAR

YSWG 270800Z AUTO 11006KT 9999 // NCD 13/05 Q1025

TAF

Not found

Frequencies

Unicom 122.80 MHz ACTIVATE LIGHTS ONLY MULT
Tower 119.50 MHz MELBOURNE CNTR
Unicom 118.20 MHz WAGGA WAGGA MULT
Warning: Do not use this data for real-world aviation or navigation. No guarantee of current accuracy is given.